SKCUBE
1 42789U 17036AA 22090.54967556 .00017812 00000-0 65826-3 0 9996
2 42789 97.2106 136.0514 0008865 232.7945 127.2487 15.27742060265172
VZLUSAT 1
1 42790U 17036AB 22090.38251767 .00025796 00000-0 88007-3 0 9996
2 42790 97.2135 138.4663 0008207 223.8872 136.1718 15.30290235265292
VENTA 1
1 42791U 17036AC 22089.70710205 .00010608 00000-0 39783-3 0 9991
2 42791 97.2085 135.1759 0008336 237.5596 122.4859 15.27379006265031
Robusta 1B
1 42792U 17036AD 22090.39777458 .00019640 00000-0 71655-3 0 9991
2 42792 97.2101 136.4144 0008436 232.9056 127.1414 15.28149426265192
D-SAT
1 42794U 17036AF 22090.50640177 .00005386 00000-0 46084-3 0 9993
2 42794 97.4538 100.0429 0123504 346.9668 12.8369 14.92219229259889
TechnoSat
1 42829U 17042E 22090.87776292 .00002096 00000-0 21370-3 0 9993
2 42829 97.4318 309.5066 0012529 266.9092 93.0694 14.91626057256523
QIKCOM-1
1 42983U 98067NF 22090.62793365 .00095623 00000-0 48307-3 0 9990
2 42983 51.6333 230.0222 0004062 327.9227 32.1527 15.80806959252565
AO-91
1 43017U 17073E 22090.67918194 .00006692 00000-0 50523-3 0 9992
2 43017 97.6846 348.0469 0252769 82.4482 280.5365 14.80643249235606
PICSAT
1 43132U 18004X 22090.48351640 .00021801 00000-0 77567-3 0 9997
2 43132 97.3774 167.4062 0006814 272.7156 87.3305 15.28966075234483
AO-92
1 43137U 18004AC 22090.78334883 .00015613 00000-0 57997-3 0 9994
2 43137 97.3737 166.7179 0006587 275.8448 84.2040 15.27620574234474
TianYi 2
1 43155U 18008A 22090.81408313 .00007121 00000-0 39311-3 0 9997
2 43155 97.3624 151.7378 0017919 58.0312 34.1844 15.14092938231528
Zhou Enlai
1 43156U 18008B 22090.81636993 .00007631 00000-0 42503-3 0 9998
2 43156 97.3674 151.5979 0015171 58.9876 33.6901 15.13792901231457
TianYi 6
1 43158U 18008D 22090.75639035 .00006591 00000-0 37620-3 0 9991
2 43158 97.3627 149.6665 0014384 58.7681 59.8461 15.12975851231350
S-Net D
1 43186U 18014G 22090.52960085 .00002980 00000-0 26008-3 0 9992
2 43186 97.6631 357.7577 0010474 193.9422 166.1513 14.97549108227252
S-Net B
1 43187U 18014H 22090.73011017 .00003049 00000-0 26591-3 0 9992
2 43187 97.6628 357.9095 0010507 193.1639 166.9310 14.97549150227288
S-Net A
1 43188U 18014J 22090.73035364 .00003047 00000-0 26580-3 0 9990
2 43188 97.6631 357.9686 0010501 193.2555 166.8392 14.97548414227282
S-Net C
1 43189U 18014K 22090.53050538 .00002991 00000-0 26105-3 0 9999
2 43189 97.6627 357.7033 0010502 193.8004 166.2933 14.97545394225803
FMN 1
1 43192U 18015A 22090.79221469 .00026470 00000-0 81164-3 0 9999
2 43192 97.5219 234.1200 0011445 304.5178 191.6420 15.33687393231523
Shaonian Xing
1 43199U 18015H 22090.76090066 .00016904 00000-0 55918-3 0 9999
2 43199 97.5002 229.9140 0013300 318.4642 147.2885 15.31329976231549
SurfSat
1 43614U 18070B 22090.50410520 .00047612 00000-0 87722-3 0 9993
2 43614 93.0255 65.8110 0009607 343.8698 16.2254 15.48945084198970
CP-7 DAVE
1 43615U 18070C 22090.85441974 .00048918 00000-0 92083-3 0 9995
2 43615 93.0258 65.8560 0009873 342.6103 17.4816 15.48321365199008
ELFIN-B
1 43616U 18070D 22090.44325746 .00087147 00000-0 12602-2 0 9994
2 43616 93.0164 66.4697 0007726 341.0403 19.0571 15.55597981199186
ELFIN-A
1 43617U 18070E 22090.52833699 .00084842 00000-0 11779-2 0 9998
2 43617 93.0252 67.6939 0006455 335.8685 24.2275 15.56722552199238
CubeBel-1
1 43666U 18083E 22090.77749615 .00009407 00000-0 41928-3 0 9991
2 43666 97.4303 120.3969 0012106 241.3656 235.6178 15.21574742189660
Changshagaoxin
1 43669U 18083H 22090.82299147 .00008293 00000-0 38624-3 0 9991
2 43669 97.4242 116.6557 0008576 234.8777 297.9716 15.20131687189501
Ten-Koh
1 43677U 18084G 22090.36216095 .00002347 00000-0 24374-3 0 9992
2 43677 97.9507 219.7778 0016292 164.8014 195.3696 14.90831527186049
PO-101
1 43678U 18084H 22090.85971368 .00001152 00000-0 11941-3 0 9997
2 43678 97.9555 223.2849 0010135 173.9517 186.1861 14.91991798186287
IRVINE 01
1 43693U 18088D 22090.49965527 .00052176 00000-0 16652-2 0 9993
2 43693 85.0361 3.4664 0016384 50.1784 310.0902 15.32149056188266
QO-100
1 43700U 18090A 22090.79710135 .00000128 00000-0 00000 0 0 9998
2 43700 0.0195 162.0395 0002318 239.3178 100.5060 1.00272918 12492
Reaktor Hello World
1 43743U 18096AA 22090.52379898 .00018940 00000-0 61752-3 0 9995
2 43743 97.3565 170.8329 0015100 342.1866 17.8844 15.31741977186029
MinXSS-2
1 43758U 18099A 22090.44992423 .00004723 00000-0 41648-3 0 9996
2 43758 97.6305 160.2543 0015858 163.8471 196.3260 14.96794341181439
AO-95
1 43770U 18099N 22090.41128861 .00004523 00000-0 40784-3 0 9992
2 43770 97.6289 158.7858 0014671 170.7075 189.4420 14.95958623181349
RANGE-B
1 43772U 18099Q 22090.50210380 .00005107 00000-0 45409-3 0 9990
2 43772 97.6386 160.3767 0014336 159.1930 200.9878 14.96452414181373
RANGE-A
1 43773U 18099R 22090.44912900 .00002694 00000-0 24675-3 0 9991
2 43773 97.6207 157.8203 0014007 159.6058 200.5726 14.95681385181337
MOVE-II
1 43780U 18099Y 22090.43045983 .00006165 00000-0 54032-3 0 9993
2 43780 97.6318 159.7560 0013519 167.3869 192.7694 14.96944185181380
SNUSat 2
1 43782U 18099AA 22090.46791656 .00004669 00000-0 41889-3 0 9996
2 43782 97.6283 159.2795 0013416 156.5719 203.6116 14.96153338181370
SnugLite
1 43784U 18099AC 22090.44864945 .00004142 00000-0 37034-3 0 9991
2 43784 97.6240 158.9179 0015376 166.2953 193.8689 14.96325881181393
ITASat 1
1 43786U 18099AE 22090.81507395 .00004180 00000-0 37511-3 0 9999
2 43786 97.6311 160.0525 0015557 162.8043 197.3709 14.96174405181448
EAGLET 1
1 43790U 18099AJ 22090.45368769 .00002414 00000-0 21763-3 0 9994
2 43790 97.6294 160.2163 0013669 168.3494 191.8047 14.96416101181127
ESEO
1 43792U 18099AL 22090.42926780 .00000997 00000-0 93773-4 0 9991
2 43792 97.6257 159.5143 0013467 164.9871 195.1753 14.96008236181165
CSIM
1 43793U 18099AM 22090.77303322 .00006925 00000-0 59618-3 0 9997
2 43793 97.6314 160.8957 0013284 160.1875 199.9866 14.97604140181251
Astrocast 0.1
1 43798U 18099AS 22090.74485078 .00005243 00000-0 46046-3 0 9991
2 43798 97.6313 160.8627 0013422 144.7954 215.4158 14.96931914181483
JO-97
1 43803U 18099AX 22090.45469145 .00004552 00000-0 40422-3 0 9997
2 43803 97.6262 159.4420 0015524 165.1896 194.9783 14.96548207181401
Suomi 100
1 43804U 18099AY 22090.46821843 .00004868 00000-0 43260-3 0 9999
2 43804 97.6264 159.3908 0015672 163.8235 196.3490 14.96485353181414
Al Farabi 2
1 43805U 18099AZ 22090.61473055 .00004317 00000-0 38019-3 0 9990
2 43805 97.6272 159.9416 0015367 162.1322 198.0456 14.96895786181454
CHOMPTT
1 43855U 18104G 22090.77994035 .00013971 00000-0 53931-3 0 9991
2 43855 85.0308 102.8808 0017286 156.8027 203.4001 15.26012424182874
ISAT
1 43879U 18111D 22090.69797311 .00006084 00000-0 52715-3 0 9990
2 43879 97.6725 357.7236 0011389 213.3959 146.6545 14.97425531176013
UWE-4
1 43880U 18111E 22090.71034314 .00004394 00000-0 38035-3 0 9993
2 43880 97.6748 358.3880 0010645 215.8461 144.2048 14.97617554176066
Sparrow
1 43881U 18111F 22090.53383040 .00005239 00000-0 45135-3 0 9995
2 43881 97.6741 358.4138 0011505 215.1650 144.8814 14.97707802178049
Lume 1
1 43908U 18111AJ 22090.66030463 .00016473 00000-0 59014-3 0 9990
2 43908 97.2027 340.9592 0019009 357.3645 2.7492 15.28644747181504
FO-98
1 43933U 19003B 22090.80683807 .00425782 00000-0 59164-2 0 9993
2 43933 97.1421 129.0319 0008690 102.5733 257.6494 15.55504246178175
FO-99
1 43937U 19003F 22090.84831145 .00021708 00000-0 77615-3 0 9993
2 43937 97.1402 127.2896 0023206 73.7880 286.5911 15.28563861178117
